Dewpoint
38 36 36 38 39 38 32 24 2 25 25 13 17 13 17 18 14 14 14 14 17 11 10 6 10 16 16 18 11 16 26 23 19 27 30 29 28 26 26 24 24 23 20 25
37 35 36 37 38 37 32 19 17 25 21 9 10 12 13 13 12 14 11 11 11 10 3 7 10 9 8 6 16 20 20 20 13 21 30 28 26 27 27 28 25 27 22 25
37 35 34 37 36 36 29 17 10 15 18 18 16 14 9 9 13 16 13 9 11 6 4 5 4 4 1 8 12 17 12 15 16 12 16 21 19 23 24 25 28 23 28 23
36 36 34 37 35 36 26 21 17 22 11 10 17 18 15 9 10 14 12 8 13 11 6 5 1 2 3 2 14 8 8 3 8 6 1 6 17 20 19 19 15 20 23 16
35 36 34 36 34 35 29 20 20 21 18 19 16 14 10 12 13 14 11 13 13 17 13 12 10 10 6 2 5 7 8 5 4 -1 3 5 11 11 17 12 11 16 16 11
35 37 34 34 33 36 32 30 29 26 15 14 14 10 14 14 15 12 16 16 16 13 12 13 14 14 11 10 12 9 9 9 6 -1 4 0 12 8 9 8 9 11 7 10
34 36 35 33 33 34 36 33 31 25 10 12 10 13 15 14 14 15 16 18 19 22 22 13 10 11 11 12 12 13 11 10 9 4 2 -11 7 11 8 7 8 10 10 12
35 34 37 33 34 35 37 35 30 25 14 13 12 14 17 16 14 15 19 17 16 17 14 8 1 -5 3 10 12 12 12 10 8 4 0 5 7 6 5 6 5 11 10 11
39 35 34 35 33 32 36 35 34 30 22 12 18 18 17 15 13 11 13 15 18 14 10 8 -2 -10 2 2 5 6 9 11 10 7 0 -5 1 5 10 13 2 11 11 10
36 37 34 36 32 33 37 34 34 31 23 20 25 17 19 21 18 15 15 16 14 13 5 1 2 -1 9 1 2 2 0 4 6 4 5 0 4 7 12 3 1 8 11 11
37 36 37 35 33 33 36 33 35 32 26 23 25 26 24 23 21 14 14 12 14 13 9 8 8 6 8 5 2 1 -1 1 0 2 1 -4 7 2 -0 6 8 10 9 11
37 37 37 35 34 33 35 32 34 35 29 23 26 26 26 32 25 22 21 18 17 19 14 14 11 6 9 7 1 1 0 0 -0 0 -1 8 9 8 11 12 9 9 10 10
37 37 37 36 34 33 36 33 33 32 26 19 20 20 27 27 26 26 20 19 21 22 23 19 16 8 10 4 3 2 1 3 1 1 2 5 7 8 8 9 10 10 9 9
37 35 37 37 36 32 36 33 34 30 24 16 14 21 27 26 21 23 24 23 25 24 22 19 14 11 8 3 3 0 1 3 -1 1 2 6 7 7 8 7 7 7 7 7
36 33 36 34 35 35 35 32 30 30 23 16 15 20 16 17 20 20 21 22 22 21 17 14 9 10 8 5 3 -2 2 -1 0 -1 4 4 4 8 8 7 8 9 9 7
34 33 35 37 37 35 29 24 30 32 30 24 15 25 20 13 18 16 17 17 17 16 13 10 10 11 8 1 -4 2 4 5 4 3 6 5 7 7 7 7 7 7 8 8
34 35 34 32 31 35 26 19 27 34 31 23 16 17 11 9 19 21 14 13 15 15 10 8 7 6 4 0 -5 1 5 5 7 6 6 4 6 5 6 5 5 8 7 6
34 32 30 33 35 37 31 32 34 31 24 20 15 9 8 8 11 16 19 13 13 10 8 7 4 3 1 -5 0 3 5 6 6 6 7 6 7 8 8 8 7 7 5 6
31 29 32 29 22 21 25 25 25 27 19 15 10 7 4 6 9 16 18 14 7 7 3 3 -1 -3 -6 -1 1 3 4 3 4 5 6 7 6 7 7 6 6 6 6 8
27 24 21 20 16 27 29 16 15 14 14 16 10 7 4 6 7 12 12 14 8 2 1 -1 -2 -3 1 3 4 4 6 7 7 3 1 2 2 4 5 6 7 7 7 8
22 18 16 17 18 11 9 10 9 8 6 9 8 7 5 8 8 9 13 9 8 -1 2 -2 -5 -5 1 5 6 7 8 8 7 5 6 4 4 5 4 4 4 5 5 7
25 21 13 9 9 9 4 6 8 6 3 8 7 5 7 8 15 12 10 6 6 -4 3 -4 -9 -1 4 5 6 7 5 5 3 3 2 3 3 3 3 3 4 4 5 5
10 9 8 10 6 -1 -2 -4 -0 2 7 8 7 5 8 11 12 9 7 1 -1 3 -5 -9 -4 2 4 5 4 3 4 4 3 2 2 3 3 3 3 3 4 4 4 5
8 4 -2 0 -1 0 1 1 2 6 7 7 7 7 6 9 6 7 -1 1 1 -8 -11 -11 -2 2 3 4 3 2 2 4 3 3 3 3 3 3 3 4 5 5 4 5
3 5 1 1 5 4 4 4 3 5 7 7 6 7 5 3 1 2 0 -6 -10 -9 -10 -3 0 3 1 1 1 1 2 4 5 5 5 5 6 5 4 5 5 5 4 5
4 3 2 1 1 -1 1 2 2 4 5 7 6 -0 -3 -4 -1 -7 -8 -11 -13 -8 -2 2 3 3 2 2 1 2 3 4 4 4 5 5 4 4 4 5 6 6 6 5
-0 1 -0 0 0 -1 -1 0 0 2 4 0 -1 -7 -6 -3 -8 -11 -6 -9 -5 -1 -0 1 4 4 3 3 4 3 4 3 4 5 5 6 6 6 5 4 5 6 5 7
Lifted_Index
15 14 14 13 12 13 13 11 10 10 9 8 7 7 6 6 5 5 4 4 4 4 4 4 4 3 4 6 6 6 5 4 1 0 0 0 0 0 0 0 1 2 2 3
14 14 13 13 12 12 12 10 9 9 8 7 6 6 6 5 5 4 4 4 4 4 4 4 4 4 4 6 6 7 6 4 2 1 1 1 0 -0 -0 0 0 1 2 2
13 13 13 12 11 11 10 9 8 8 7 6 6 5 5 5 4 4 3 3 3 3 3 3 3 4 4 5 6 7 7 6 4 3 3 3 2 1 0 0 0 0 1 1
13 12 12 11 10 10 9 8 7 7 6 6 5 5 5 4 4 3 3 3 3 2 2 2 2 3 3 4 5 6 6 6 6 5 5 5 4 3 2 2 2 1 1 1
12 12 11 10 9 9 8 8 7 6 6 5 5 5 4 4 4 3 3 2 2 1 1 1 1 2 2 3 4 4 5 5 5 6 6 6 5 4 4 4 4 4 3 2
11 11 10 9 9 8 7 7 7 6 5 5 5 4 4 4 4 3 3 2 1 1 1 1 1 1 2 2 2 3 4 4 5 5 5 5 5 5 6 6 6 5 4 4
11 10 9 9 8 7 7 7 7 6 5 4 4 4 4 4 4 3 2 2 1 1 1 1 1 1 1 1 1 1 2 3 4 4 5 4 5 6 7 6 6 6 6 6
10 9 9 8 7 7 7 7 6 5 5 4 4 4 4 4 4 3 2 2 2 2 1 1 1 1 1 0 0 1 1 2 2 3 4 4 6 7 8 7 7 7 8 8
9 9 8 7 7 7 7 6 6 6 5 4 4 4 4 4 4 4 3 2 2 2 1 1 1 1 1 0 0 1 1 1 1 2 2 3 5 7 8 7 7 9 10 10
8 8 8 7 7 7 6 6 6 5 5 4 4 4 4 4 4 4 3 3 2 2 1 1 1 1 1 1 1 1 1 1 1 1 1 2 4 6 7 7 7 9 11 11
8 7 7 7 6 6 6 6 6 5 5 4 4 4 4 4 4 4 3 3 2 2 1 1 1 1 1 1 1 1 1 1 1 1 1 2 5 6 6 7 8 10 11 11
7 7 6 6 6 6 6 6 5 5 4 4 4 4 4 4 4 4 3 3 2 2 2 1 1 1 1 1 1 1 1 1 1 1 1 3 5 6 7 8 9 9 10 11
7 7 6 6 6 6 6 5 5 4 4 4 4 4 4 4 4 4 4 3 3 2 2 1 1 1 1 1 1 1 1 1 1 1 2 4 6 7 8 8 9 9 9 10
7 7 6 6 5 5 5 5 4 4 4 4 4 4 4 4 4 4 4 4 3 2 2 2 1 1 1 1 1 1 2 2 1 1 3 4 6 7 8 8 8 9 9 9
7 7 6 5 5 5 5 5 4 4 4 4 4 4 4 4 4 5 4 4 3 3 2 2 2 2 1 1 1 2 3 3 2 3 4 5 6 7 8 8 8 9 9 9
7 7 6 5 5 5 5 5 4 4 4 4 4 4 4 4 4 4 5 4 4 4 3 2 2 2 2 1 1 3 5 6 5 5 6 6 7 7 8 8 8 9 9 9
7 7 6 5 4 4 5 4 4 4 4 4 4 4 4 4 4 5 5 5 5 4 3 3 3 3 3 2 2 4 6 7 8 8 8 7 7 8 8 9 9 9 9 9
7 7 6 5 5 5 5 4 4 3 3 3 3 3 4 5 5 5 5 5 5 5 4 4 3 3 3 3 4 6 7 8 8 8 8 8 8 8 9 9 9 9 9 9
8 7 6 5 5 5 5 4 4 3 4 3 3 3 4 5 5 5 5 5 5 5 5 4 4 4 4 5 6 7 8 8 8 8 8 8 8 9 9 9 9 9 8 8
8 7 6 6 6 6 5 4 4 4 4 4 4 4 4 5 5 5 5 5 5 5 5 5 4 4 6 8 8 8 8 9 8 8 8 8 8 9 9 9 9 9 9 9
8 7 7 7 7 6 5 4 4 3 3 4 4 4 4 5 5 5 5 5 5 5 5 5 4 5 7 9 9 9 9 9 9 9 9 9 9 9 9 9 10 10 10 10
8 8 8 8 7 6 4 4 3 3 3 4 4 4 5 6 6 5 5 5 5 5 5 5 5 7 9 10 10 10 10 10 10 10 10 10 10 10 10 10 10 10 10 10
7 7 7 7 6 5 4 3 3 3 4 4 5 5 5 6 6 5 5 5 5 5 5 5 6 8 10 10 10 10 10 10 10 10 10 10 10 10 10 10 11 11 11 11
7 7 7 6 6 5 5 5 4 5 5 5 5 5 5 5 5 5 5 5 5 5 4 5 8 10 10 10 10 10 10 10 9 9 10 10 10 10 10 11 11 11 11 11
7 7 7 7 7 7 7 6 6 6 7 6 6 6 6 5 5 5 4 4 4 4 5 7 9 10 10 10 10 10 10 10 10 9 9 10 10 10 10 11 11 11 11 11
8 8 8 8 8 8 7 7 7 7 7 7 6 6 5 5 5 5 4 4 4 6 7 9 10 10 10 10 10 10 10 10 10 10 10 10 10 10 10 10 11 11 11 11
9 9 9 9 8 8 7 7 7 7 7 6 6 5 5 5 5 5 5 5 6 7 9 10 10 10 10 10 10 10 10 10 10 10 10 10 10 10 10 10 10 11 11 11